Sumburgh, United Kingdom

6:45 PM BST on September 27, 2016 (GMT +0100)
Sumburgh

Weather History for EGPB - February, 2013

Change the Weather History Date:

Friday, February 15, 2013

  Actual Average Record
Temperature  
Mean Temperature 44 °F -  
Max Temperature 46 °F 43 °F 48 °F (1998)
Min Temperature 42 °F 38 °F 30 °F (2016)
Degree Days  
Heating Degree Days 21    
Moisture  
Dew Point 41 °F    
Average Humidity 87    
Maximum Humidity 100    
Minimum Humidity 71    
Precipitation  
Precipitation 0.00 in - - ()
Sea Level Pressure  
Sea Level Pressure 29.81 in    
Wind  
Wind Speed 14 mph ()    
Max Wind Speed 24 mph    
Max Gust Speed 25 mph    
Visibility 5.6 miles    
Events Fog , Rain    
Averages and records for this station are not official NWS values.
T = Trace of Precipitation, MM = Missing Value Source: Averaged Metar Reports

Daily Weather History Graph

Daily Weather History Graph

Search for Another Location

Airport or City:

Trip Planner

Search our weather history database for the weather conditions in past years. The results will help you decide how hot, cold, wet, or windy it might be!

Date:

Astronomy

Feb. 15, 2013 Rise Set
Actual Time 7:42 AM GMT 4:57 PM GMT
Civil Twilight 6:58 AM GMT 5:40 PM GMT
Nautical Twilight 6:10 AM GMT 6:29 PM GMT
Astronomical Twilight 5:22 AM GMT 7:17 PM GMT
Moon 8:35 AM GMT (2/15) No Moon Set
Length of Visible Light 10h 42m
Length of Day
9h 14m
Waxing Crescent, 28% of the Moon is Illuminated
Feb 15
Waxing Crescent
Feb 17
First Quarter
Feb 25
Full
Mar 4
Last Quarter
Mar 11
New

Hourly Weather History & Observations

Time (GMT) Temp. Windchill Dew Point Humidity Pressure Visibility Wind Dir Wind Speed Gust Speed Precip Events Conditions
12:20 AM 44.6 °F 35.7 °F 41.0 °F 87% 29.59 in 3.1 mi SE 24.2 mph - N/A   Mostly Cloudy
12:50 AM 42.8 °F 34.0 °F 41.0 °F 93% 29.59 in 6.2 mi ESE 20.7 mph - N/A   Scattered Clouds
1:20 AM 44.6 °F 36.6 °F 41.0 °F 87% 29.56 in 6.2 mi SE 19.6 mph - N/A   Mostly Cloudy
1:50 AM 42.8 °F 34.0 °F 41.0 °F 93% 29.59 in 3.1 mi SE 20.7 mph - N/A   Mostly Cloudy
2:20 AM 42.8 °F 34.3 °F 41.0 °F 93% 29.59 in 3.1 mi SE 19.6 mph - N/A Rain Light Rain
2:50 AM 42.8 °F 35.4 °F 42.8 °F 100% 29.59 in - ESE 15.0 mph - N/A   Overcast
3:20 AM 44.6 °F 41.4 °F 42.8 °F 93% 29.59 in 2.2 mi SE 5.8 mph - N/A   Mostly Cloudy
3:50 AM 42.8 °F - 42.8 °F 100% 29.59 in 1.1 mi Variable 2.3 mph - N/A   Overcast
4:20 AM 42.8 °F 37.5 °F 42.8 °F 100% 29.59 in 3.1 mi West 9.2 mph - N/A   Scattered Clouds
4:50 AM 42.8 °F 35.1 °F 41.0 °F 93% 29.62 in 6.2 mi West 16.1 mph - N/A   Mostly Cloudy
5:20 AM 42.8 °F 35.8 °F 41.0 °F 93% 29.62 in 6.2 mi WNW 13.8 mph - N/A   Mostly Cloudy
5:50 AM 42.8 °F 36.2 °F 41.0 °F 93% 29.65 in 6.2 mi WNW 12.7 mph - N/A   Mostly Cloudy
6:20 AM 42.8 °F 35.4 °F 41.0 °F 93% 29.65 in 6.2 mi WNW 15.0 mph - N/A   Partly Cloudy
6:50 AM 44.6 °F 37.8 °F 42.8 °F 93% 29.65 in 6.2 mi West 15.0 mph - N/A   Scattered Clouds
7:20 AM 44.6 °F 37.2 °F 42.8 °F 93% 29.68 in 6.2 mi West 17.3 mph - N/A Fog Mostly Cloudy
7:50 AM 44.6 °F 37.4 °F 42.8 °F 93% 29.71 in 6.2 mi WNW 16.1 mph - N/A   Mostly Cloudy
8:20 AM 44.6 °F 37.4 °F 41.0 °F 87% 29.71 in 6.2 mi WNW 16.1 mph - N/A   Mostly Cloudy
8:50 AM 44.6 °F 37.2 °F 41.0 °F 87% 29.74 in 6.2 mi WNW 17.3 mph - N/A   Mostly Cloudy
9:20 AM 44.6 °F 37.8 °F 41.0 °F 87% 29.74 in 6.2 mi WNW 15.0 mph - N/A Rain Light Rain Showers
9:50 AM 42.8 °F 34.5 °F 41.0 °F 93% 29.77 in 6.2 mi West 18.4 mph - N/A   Mostly Cloudy
10:20 AM 44.6 °F 36.9 °F 39.2 °F 81% 29.80 in 6.2 mi West 18.4 mph - N/A   Scattered Clouds
10:50 AM 44.6 °F 37.8 °F 39.2 °F 81% 29.80 in 6.2 mi West 15.0 mph - N/A   Mostly Cloudy
11:20 AM 44.6 °F 36.9 °F 39.2 °F 81% 29.83 in 6.2 mi West 18.4 mph - N/A Rain Light Rain Showers
11:50 AM 44.6 °F 38.4 °F 39.2 °F 81% 29.83 in 6.2 mi WNW 12.7 mph 25.3 mph N/A   Scattered Clouds
12:20 PM 44.6 °F 36.9 °F 39.2 °F 81% 29.86 in 6.2 mi WNW 18.4 mph - N/A   Scattered Clouds
12:50 PM 46.4 °F 40.1 °F 39.2 °F 76% 29.86 in 6.2 mi West 15.0 mph - N/A   Scattered Clouds
1:20 PM 44.6 °F 37.8 °F 37.4 °F 76% 29.86 in 6.2 mi West 15.0 mph - N/A   Scattered Clouds
1:50 PM 44.6 °F 38.1 °F 39.2 °F 81% 29.89 in 6.2 mi West 13.8 mph - N/A   Mostly Cloudy
2:20 PM 46.4 °F 40.1 °F 37.4 °F 71% 29.89 in 6.2 mi WNW 15.0 mph - N/A   Mostly Cloudy
2:50 PM 44.6 °F 37.8 °F 37.4 °F 76% 29.89 in 6.2 mi WNW 15.0 mph - N/A   Mostly Cloudy
3:20 PM 44.6 °F 38.4 °F 37.4 °F 76% 29.92 in 6.2 mi West 12.7 mph - N/A   Scattered Clouds
3:50 PM 44.6 °F 39.2 °F 37.4 °F 76% 29.92 in 6.2 mi West 10.4 mph - N/A   Scattered Clouds
4:20 PM 44.6 °F 39.2 °F 41.0 °F 87% 29.92 in 6.2 mi WSW 10.4 mph - N/A   Mostly Cloudy
4:50 PM 42.8 °F 36.6 °F 39.2 °F 87% 29.92 in 6.2 mi WSW 11.5 mph - N/A   Mostly Cloudy
5:20 PM 42.8 °F 38.6 °F 39.2 °F 87% 29.95 in 6.2 mi SW 6.9 mph - N/A   Scattered Clouds
5:50 PM 44.6 °F 40.2 °F 41.0 °F 87% 29.95 in 6.2 mi SSW 8.1 mph - N/A   Mostly Cloudy
6:20 PM 44.6 °F 39.2 °F 41.0 °F 87% 29.95 in 6.2 mi SW 10.4 mph - N/A   Mostly Cloudy
6:50 PM 44.6 °F 39.7 °F 41.0 °F 87% 29.98 in 6.2 mi SW 9.2 mph - N/A   Scattered Clouds
7:20 PM 44.6 °F 39.7 °F 42.8 °F 93% 29.98 in 6.2 mi SW 9.2 mph - N/A   Mostly Cloudy
7:50 PM 44.6 °F 38.8 °F 42.8 °F 93% 29.98 in 6.2 mi SW 11.5 mph - N/A   Mostly Cloudy
8:20 PM 44.6 °F 38.8 °F 41.0 °F 87% 29.98 in 6.2 mi SW 11.5 mph - N/A   Scattered Clouds
8:50 PM 42.8 °F 35.8 °F 41.0 °F 93% 29.98 in 6.2 mi SW 13.8 mph - N/A   Scattered Clouds
9:20 PM 44.6 °F 38.4 °F 39.2 °F 81% 29.98 in 6.2 mi SW 12.7 mph - N/A   Mostly Cloudy
9:50 PM 44.6 °F 38.4 °F 41.0 °F 87% 30.01 in 6.2 mi SW 12.7 mph - N/A   Partly Cloudy
10:20 PM 44.6 °F 38.4 °F 41.0 °F 87% 30.01 in 5.6 mi SSW 12.7 mph - N/A   Unknown
10:50 PM 44.6 °F 38.1 °F 41.0 °F 87% 30.01 in 4.3 mi SW 13.8 mph - N/A   Mostly Cloudy
11:20 PM 44.6 °F 38.4 °F 41.0 °F 87% 30.01 in 4.3 mi SW 12.7 mph - N/A   Mostly Cloudy
11:50 PM 44.6 °F 38.1 °F 41.0 °F 87% 30.01 in 5.0 mi SW 13.8 mph - N/A   Partly Cloudy